{"data":{"norad_id":68468,"epoch":"2026-05-24T20:20:51.507168Z","epoch_age_seconds":85265,"freshness":"FRESH","line1":"1 68468U 26067BE  26144.84781837  .00007757  00000+0  39257-3 0  9990","line2":"2 68468  97.4535 103.5725 0008411 126.6077 233.5931 15.17260231  8397","mean_motion":15.17260231,"eccentricity":0.0008411,"inclination_deg":97.4535,"raan_deg":103.5725,"arg_perigee_deg":126.6077,"mean_anomaly_deg":233.5931,"bstar":0.00039257,"rev_number":839,"period_min":94.907911680445,"perigee_km":508.32813009336,"apogee_km":519.92229358612,"semimajor_km":6892.2622118397,"source":"CELESTRAK","updated_at":"2026-05-25T13:38:07.848089Z"}}